Total_Precipitation_Accumulation
2.04 2.45 2.76 3.31 3.91 4.33 4.74 4.91 4.96 4.86 4.68 4.34 4.03 3.80 3.56 3.34 3.08 2.90 2.79 2.72 2.63 2.85 3.34 3.14 3.40 3.32 3.33 3.37 3.42 3.55 3.45 3.15 3.34 3.42 3.01 2.42 1.99 1.96 1.74 1.69 1.75 1.81 1.82
1.99 2.50 2.80 3.02 3.46 3.96 4.42 4.75 4.94 4.82 4.43 4.07 3.91 3.81 3.77 3.37 3.08 3.06 3.20 3.02 3.02 3.07 3.13 3.36 3.30 3.33 3.45 3.41 3.40 3.56 3.34 2.97 3.26 3.63 3.69 2.99 2.56 2.09 1.59 1.70 1.82 2.00 2.09
2.27 2.57 2.76 2.89 3.14 3.54 3.84 3.94 4.13 4.09 3.93 3.97 4.00 3.96 3.98 3.57 3.50 3.51 3.51 3.29 3.29 3.31 3.32 3.30 3.21 3.21 3.02 3.11 3.20 3.23 3.25 3.18 3.14 3.47 3.80 3.35 2.85 2.46 1.86 1.74 1.77 2.03 2.36
1.96 2.17 2.45 2.72 2.89 3.13 3.45 3.66 3.71 3.67 3.59 3.71 3.78 3.68 3.51 3.39 3.55 3.83 3.76 3.49 3.28 3.15 2.97 2.92 3.08 3.09 2.88 2.93 2.59 2.76 2.96 2.96 2.82 3.11 3.17 3.18 3.18 3.08 2.40 1.95 1.78 1.95 2.17
1.70 1.81 2.02 2.34 2.47 2.80 3.07 3.27 3.52 3.62 3.56 3.64 3.62 3.65 3.49 3.48 3.55 3.56 3.62 3.41 3.23 2.92 2.58 2.61 2.81 2.76 2.66 2.57 2.48 2.69 2.53 2.46 2.53 2.76 2.95 3.02 3.10 2.99 2.81 2.38 2.33 2.28 2.14
1.48 1.71 1.88 2.17 2.35 2.47 2.59 2.69 2.90 3.18 3.36 3.41 3.37 3.43 3.37 3.35 3.30 3.27 3.16 2.96 2.81 2.62 2.33 2.22 2.39 2.49 2.52 2.48 2.46 2.55 2.43 2.44 2.57 2.58 2.65 2.89 2.89 2.85 3.01 2.59 2.44 2.45 2.20
1.21 1.45 1.61 1.78 1.99 2.11 2.21 2.34 2.60 2.96 3.06 3.02 2.98 3.09 3.15 3.16 3.09 3.08 2.92 2.70 2.48 2.25 2.20 2.20 2.30 2.32 2.38 2.25 2.31 2.36 2.40 2.57 2.63 2.54 2.48 2.60 2.65 2.76 3.02 2.98 2.67 2.55 2.35
0.97 1.12 1.39 1.70 1.88 1.87 1.94 2.08 2.37 2.63 2.67 2.60 2.74 3.00 3.07 3.11 3.04 3.05 2.73 2.47 2.26 2.21 2.31 2.27 2.12 2.07 2.17 2.05 2.32 2.25 2.30 2.52 2.59 2.36 2.61 2.62 2.62 2.91 3.15 3.25 3.34 3.00 2.68
0.98 1.06 1.16 1.38 1.52 1.58 1.64 1.79 2.20 2.47 2.56 2.64 2.76 2.88 2.98 2.96 2.92 2.81 2.52 2.27 2.29 2.25 2.38 2.32 2.21 2.10 2.18 2.29 2.56 2.50 2.44 2.65 2.64 2.64 2.83 2.76 2.71 2.86 2.99 3.19 3.45 3.54 3.15
0.83 0.91 0.96 1.08 1.18 1.36 1.62 1.79 1.93 2.23 2.34 2.43 2.58 2.61 2.84 2.76 2.60 2.55 2.32 2.09 2.01 2.08 2.26 2.39 2.31 2.22 2.24 2.41 2.61 2.61 2.74 2.91 2.93 2.99 3.06 3.01 2.83 2.91 2.96 3.01 3.29 3.62 3.53
0.75 0.80 0.93 1.07 1.16 1.29 1.50 1.61 1.65 1.83 1.98 2.10 2.31 2.32 2.32 2.39 2.46 2.30 2.04 1.95 1.96 2.03 2.10 2.29 2.35 2.30 2.33 2.44 2.51 2.46 2.77 2.91 2.94 2.92 2.91 2.88 3.01 3.00 2.90 3.00 3.18 3.46 3.55
0.81 0.86 1.03 1.16 1.23 1.36 1.39 1.42 1.50 1.70 1.87 2.03 2.22 2.28 2.26 2.30 2.33 2.19 2.01 1.98 2.02 2.08 2.08 2.19 2.23 2.13 2.15 2.35 2.38 2.42 2.70 2.86 2.75 2.74 2.75 2.54 2.60 2.68 2.56 2.70 2.78 2.92 3.19
0.86 0.93 1.06 1.11 1.10 1.20 1.33 1.35 1.36 1.55 1.76 1.94 2.22 2.39 2.43 2.39 2.31 2.11 1.89 1.82 1.82 1.91 1.95 1.98 2.02 2.07 2.21 2.30 2.29 2.31 2.32 2.35 2.42 2.64 2.75 2.54 2.53 2.43 2.43 2.46 2.44 2.53 2.65
0.83 0.95 0.98 1.11 1.11 1.13 1.24 1.23 1.28 1.37 1.62 1.84 2.05 2.19 2.08 2.03 2.01 1.90 1.75 1.69 1.70 1.75 1.81 1.89 1.99 2.06 2.14 2.18 2.25 2.31 2.23 2.21 2.26 2.40 2.47 2.45 2.41 2.34 2.44 2.34 2.33 2.42 2.59
0.73 0.81 0.83 0.90 0.96 1.10 1.22 1.14 1.15 1.17 1.30 1.49 1.60 1.74 1.73 1.72 1.71 1.78 1.81 1.81 1.86 1.81 1.89 1.96 1.97 1.96 1.95 1.88 1.94 2.02 2.03 2.16 2.11 2.02 2.04 2.06 2.11 2.09 2.12 1.98 2.15 2.40 2.54
0.54 0.52 0.70 0.81 0.78 0.82 0.93 0.87 0.91 1.04 1.18 1.27 1.37 1.60 1.73 1.75 1.74 1.81 1.94 1.96 1.91 1.91 1.94 1.89 1.94 1.94 1.67 1.85 1.89 1.89 1.99 2.07 2.07 1.99 1.88 1.79 1.78 1.70 1.70 1.65 1.75 2.04 2.27
0.52 0.47 0.56 0.73 0.74 0.75 0.76 0.87 0.98 1.12 1.22 1.37 1.51 1.70 1.81 1.89 1.90 1.87 2.00 1.96 1.96 2.03 1.99 1.91 1.92 1.94 1.99 2.05 1.88 1.75 1.72 1.83 1.88 1.85 1.82 1.60 1.51 1.68 1.65 1.68 1.66 1.69 1.85
0.53 0.52 0.52 0.55 0.61 0.68 0.75 0.91 1.20 1.45 1.51 1.65 1.83 1.93 2.05 2.00 1.97 1.97 2.00 2.09 2.18 2.23 2.20 2.13 2.05 2.03 2.00 2.01 1.82 1.83 1.74 1.75 1.75 1.76 1.80 1.79 1.70 1.76 1.88 1.84 1.76 1.64 1.59
0.55 0.58 0.63 0.66 0.73 0.79 0.83 1.02 1.25 1.56 1.75 1.80 1.90 2.05 2.14 2.19 2.19 2.19 2.17 2.26 2.38 2.34 2.26 2.21 2.22 2.16 2.18 2.26 2.07 2.10 1.93 1.91 1.91 1.95 1.95 1.92 1.82 1.96 1.93 1.81 1.78 1.72 1.70
0.67 0.68 0.72 0.84 1.03 1.10 1.12 1.24 1.36 1.51 1.71 1.78 1.89 2.07 2.29 2.35 2.36 2.50 2.60 2.55 2.50 2.36 2.37 2.36 2.34 2.34 2.39 2.64 2.45 2.28 2.10 2.09 2.09 2.18 2.16 2.20 2.05 2.05 1.98 1.81 1.81 1.82 1.84
0.78 0.77 0.80 0.96 1.21 1.34 1.39 1.49 1.63 1.72 1.73 1.81 1.96 2.14 2.31 2.40 2.48 2.65 2.73 2.69 2.63 2.60 2.57 2.50 2.55 2.54 2.53 2.70 2.47 2.27 2.12 2.17 2.31 2.30 2.21 2.26 2.30 2.09 2.10 2.04 1.93 1.91 1.92
0.90 0.95 0.99 1.15 1.38 1.55 1.53 1.60 1.69 1.72 1.75 1.76 1.90 2.03 2.18 2.20 2.30 2.57 2.66 2.75 2.76 2.72 2.63 2.58 2.45 2.48 2.46 2.39 2.26 2.17 2.14 2.22 2.32 2.38 2.31 2.28 2.29 2.07 2.00 1.86 1.82 1.86 1.76
0.95 1.02 1.09 1.27 1.54 1.72 1.76 1.83 1.73 1.80 1.82 1.84 1.97 2.11 2.19 2.25 2.35 2.47 2.52 2.61 2.67 2.62 2.50 2.52 2.47 2.42 2.41 2.38 2.16 1.95 1.93 1.98 2.00 2.13 2.28 2.22 2.12 1.92 1.72 1.67 1.64 1.55 1.43
0.89 0.96 1.09 1.19 1.30 1.52 1.74 1.85 1.88 1.92 1.91 1.94 2.00 2.09 2.20 2.20 2.28 2.40 2.52 2.63 2.73 2.80 2.67 2.54 2.43 2.41 2.37 2.24 2.06 1.88 1.80 1.91 2.03 2.12 2.18 2.07 1.96 1.77 1.61 1.51 1.41 1.35 1.42
0.91 0.96 1.07 1.12 1.17 1.26 1.41 1.49 1.62 1.75 1.82 1.88 1.95 1.98 2.02 2.12 2.24 2.30 2.41 2.39 2.45 2.48 2.46 2.39 2.36 2.35 2.27 2.12 2.04 1.85 1.74 1.86 2.04 2.11 2.11 1.97 1.91 1.80 1.70 1.62 1.56 1.54 1.55
1.00 1.02 1.06 1.06 1.08 1.15 1.31 1.43 1.54 1.69 1.84 1.93 1.96 1.90 1.86 1.94 2.02 2.11 2.13 2.14 2.03 2.02 1.96 1.97 1.95 1.88 1.79 1.69 1.57 1.55 1.57 1.66 1.84 1.85 1.90 1.99 1.95 1.88 1.80 1.70 1.62 1.58 1.55